N8IR-19 Weather Reports


Display with metric or nautical units.
time (UTC)temp
F
wind
direction
speed
MPH
gust
MPH
rain 1hr
in
rain 24hr
in
rain mn
in
humidity
%
barometer
mb
20260504190920 71 225 14.0 20.0 0.00 0.00 0.00 40 984.3
20260504190419 71 203 8.0 12.0 0.00 0.00 0.00 39 984.4
20260504185920 71 203 12.0 23.0 0.00 0.00 0.00 41 984.4
20260504185419 71 225 10.0 18.0 0.00 0.00 0.00 40 984.4
20260504184919 70 225 16.0 21.0 0.00 0.00 0.00 40 984.5
20260504184421 70 203 12.0 18.0 0.00 0.00 0.00 41 984.6
20260504183918 70 203 13.0 23.0 0.00 0.00 0.00 40 984.8
20260504183419 70 203 20.0 27.0 0.00 0.00 0.00 40 985.0
20260504182917 70 180 10.0 17.0 0.00 0.00 0.00 40 984.8
20260504182419 70 203 7.0 12.0 0.00 0.00 0.00 39 984.9
20260504181919 70 203 10.0 14.0 0.00 0.00 0.00 40 985.0
20260504181417 70 203 10.0 18.0 0.00 0.00 0.00 40 985.1
20260504180918 70 225 10.0 13.0 0.00 0.00 0.00 38 985.3
20260504180418 70 225 14.0 22.0 0.00 0.00 0.00 39 985.1
20260504175940 69 203 11.0 19.0 0.00 0.00 0.00 40 985.3
20260504175437 69 225 13.0 19.0 0.00 0.00 0.00 39 985.4
20260504174920 69 203 12.0 20.0 0.00 0.00 0.00 41 985.5
20260504174417 69 203 9.0 17.0 0.00 0.00 0.00 41 985.5
20260504173917 69 203 6.0 8.0 0.00 0.00 0.00 42 985.7
20260504173419 68 180 6.0 10.0 0.00 0.00 0.00 42 985.6
20260504172917 68 203 10.0 16.0 0.00 0.00 0.00 40 985.8
20260504172417 68 225 17.0 20.0 0.00 0.00 0.00 40 985.8
20260504171917 68 203 7.0 15.0 0.00 0.00 0.00 43 985.8
20260504171417 68 203 8.0 13.0 0.00 0.00 0.00 41 985.9
20260504170918 67 203 10.0 16.0 0.00 0.00 0.00 43 985.9
20260504170418 67 225 10.0 19.0 0.00 0.00 0.00 42 985.9
20260504160417 65 225 9.0 16.0 0.00 0.00 0.00 43 986.2
20260504150937 63 203 7.0 11.0 0.00 0.00 0.00 45 986.5
20260504150437 63 203 7.0 11.0 0.00 0.00 0.00 45 986.5
20260504140917 62 225 17.0 19.0 0.00 0.00 0.00 45 986.9
20260504140417 62 225 14.0 17.0 0.00 0.00 0.00 46 986.9
20260504130417 58 225 15.0 17.0 0.00 0.00 0.00 48 987.4
20260504110418 52 225 11.0 15.0 0.00 0.00 0.00 51 987.1
20260504100420 52 225 17.0 21.0 0.00 0.00 0.00 51 987.0
20260504081918 53 225 16.0 26.0 0.00 0.00 0.00 48 987.7
20260504081418 53 203 14.0 19.0 0.00 0.00 0.00 48 987.7
20260504080920 53 225 17.0 23.0 0.00 0.00 0.00 48 987.9
20260504080420 53 203 16.0 24.0 0.00 0.00 0.00 48 987.9
20260504050418 53 225 10.0 16.0 0.00 0.00 0.00 48 990.3
20260504045918 53 203 13.0 21.0 0.00 0.00 0.00 48 990.4
20260504045418 53 225 12.0 22.0 0.00 0.00 0.00 48 990.4
20260504044939 53 225 15.0 22.0 0.00 0.00 0.00 49 990.4
20260504044438 53 203 12.0 18.0 0.00 0.00 0.00 49 990.5
20260504043918 52 203 14.0 19.0 0.00 0.00 0.00 49 990.6
20260504043418 52 203 11.0 20.0 0.00 0.00 0.00 49 990.5
20260504042958 52 203 12.0 20.0 0.00 0.00 0.00 49 990.5
20260504042438 52 203 11.0 17.0 0.00 0.00 0.00 49 990.6
20260504041918 52 203 11.0 16.0 0.00 0.00 0.00 49 990.7
20260504041418 52 225 10.0 15.0 0.00 0.00 0.00 50 990.7
20260504040921 52 203 8.0 11.0 0.00 0.00 0.00 50 990.7
20260504040458 52 203 8.0 14.0 0.00 0.00 0.00 50 990.8
20260504035939 52 203 7.0 15.0 0.00 0.00 0.00 50 990.9
20260504035420 52 203 10.0 14.0 0.00 0.00 0.00 51 991.0
20260504034920 52 203 8.0 11.0 0.00 0.00 0.00 51 991.0
20260504034420 52 180 5.0 9.0 0.00 0.00 0.00 51 991.1
20260504033920 52 203 9.0 14.0 0.00 0.00 0.00 51 991.1
20260504033420 52 225 8.0 16.0 0.00 0.00 0.00 52 991.2
20260504032920 52 180 6.0 10.0 0.00 0.00 0.00 51 991.3
20260504032438 52 180 8.0 14.0 0.00 0.00 0.00 52 991.3
20260504031940 52 203 6.0 12.0 0.00 0.00 0.00 51 991.3
20260504031438 52 203 6.0 8.0 0.00 0.00 0.00 51 991.4
20260504030921 52 203 6.0 9.0 0.00 0.00 0.00 51 991.5
20260504030418 52 203 5.0 8.0 0.00 0.00 0.00 51 991.6
20260504025918 52 203 7.0 9.0 0.00 0.00 0.00 51 991.7
20260504025418 52 180 7.0 13.0 0.00 0.00 0.00 51 991.7
20260504024918 52 203 6.0 11.0 0.00 0.00 0.00 50 991.8
20260504024418 53 225 7.0 13.0 0.00 0.00 0.00 50 991.8
20260504023918 53 203 6.0 10.0 0.00 0.00 0.00 50 991.9
20260504023418 53 203 7.0 17.0 0.00 0.00 0.00 50 991.8
20260504022958 53 203 7.0 11.0 0.00 0.00 0.00 50 991.9
20260504022418 53 203 7.0 10.0 0.00 0.00 0.00 50 992.0
20260504021918 53 203 7.0 11.0 0.00 0.00 0.00 50 991.9
20260504021418 53 203 6.0 11.0 0.00 0.00 0.00 50 991.9
20260504020938 53 203 10.0 15.0 0.00 0.00 0.00 50 992.0
20260504020418 53 203 9.0 13.0 0.00 0.00 0.00 49 991.9
20260504015917 53 225 7.0 16.0 0.00 0.00 0.00 49 992.0
20260504015419 53 225 11.0 14.0 0.00 0.00 0.00 48 992.0
20260504014918 53 203 7.0 10.0 0.00 0.00 0.00 48 992.0
20260504014419 54 225 8.0 14.0 0.00 0.00 0.00 47 991.9
20260504013918 53 203 9.0 14.0 0.00 0.00 0.00 47 991.9
20260504013418 54 225 12.0 16.0 0.00 0.00 0.00 48 991.9
20260504012918 54 203 10.0 14.0 0.00 0.00 0.00 48 991.8
20260504012418 54 225 13.0 15.0 0.00 0.00 0.00 47 991.9
20260504011919 54 225 11.0 17.0 0.00 0.00 0.00 47 992.0
20260504011418 54 225 15.0 18.0 0.00 0.00 0.00 48 992.0
20260504010918 54 225 14.0 16.0 0.00 0.00 0.00 47 992.0
20260504010418 54 225 12.0 14.0 0.00 0.00 0.00 47 992.1
20260504005919 54 248 13.0 17.0 0.00 0.00 0.00 47 992.2
20260504005417 54 225 15.0 19.0 0.00 0.00 0.00 47 992.0
20260504004918 54 248 11.0 14.0 0.00 0.00 0.00 47 992.0
20260504004417 55 225 12.0 16.0 0.00 0.00 0.00 45 992.0
20260504003918 55 248 14.0 16.0 0.00 0.00 0.00 47 992.1
20260504003418 55 225 9.0 12.0 0.00 0.00 0.00 48 992.1
20260504002918 55 248 8.0 11.0 0.00 0.00 0.00 47 992.0
20260504002437 55 248 13.0 15.0 0.00 0.00 0.00 47 992.0
20260504001938 56 225 11.0 14.0 0.00 0.00 0.00 47 992.0
20260504001418 56 248 13.0 17.0 0.00 0.00 0.00 46 991.8
20260504000919 57 248 10.0 15.0 0.00 0.00 0.00 46 991.8
20260504000439 57 248 12.0 17.0 0.00 0.00 0.00 44 991.8
20260503235917 58 225 14.0 19.0 0.00 0.00 0.00 43 991.7
20260503235439 59 225 16.0 20.0 0.00 0.00 0.00 35 991.5
20260503234918 59 225 13.0 16.0 0.00 0.00 0.00 33 991.4
20260503234458 59 225 12.0 14.0 0.00 0.00 0.00 31 991.5
20260503233917 60 225 12.0 16.0 0.00 0.00 0.00 31 991.4
20260503233418 60 225 12.0 17.0 0.00 0.00 0.00 31 991.3
20260503232918 60 225 13.0 16.0 0.00 0.00 0.00 31 991.3
20260503232418 60 225 15.0 17.0 0.00 0.00 0.00 32 991.4
20260503231918 60 225 15.0 18.0 0.00 0.00 0.00 33 991.4
20260503231418 60 225 17.0 22.0 0.00 0.00 0.00 31 991.5
20260503230918 60 225 16.0 19.0 0.00 0.00 0.00 32 991.5
20260503230459 60 225 11.0 15.0 0.00 0.00 0.00 31 991.5
20260503225917 61 225 15.0 18.0 0.00 0.00 0.00 30 991.4
20260503225418 61 225 15.0 18.0 0.00 0.00 0.00 29 991.5
20260503224938 61 248 16.0 18.0 0.00 0.00 0.00 30 991.5
20260503224418 61 225 15.0 19.0 0.00 0.00 0.00 32 991.6
20260503223918 61 225 15.0 20.0 0.00 0.00 0.00 29 991.6
20260503223418 61 225 15.0 22.0 0.00 0.00 0.00 32 991.6
20260503222917 61 225 16.0 22.0 0.00 0.00 0.00 31 991.6
20260503222418 61 225 16.0 20.0 0.00 0.00 0.00 31 991.7
20260503221918 61 225 18.0 23.0 0.00 0.00 0.00 31 991.6
20260503221417 61 225 18.0 21.0 0.00 0.00 0.00 29 991.6
20260503220918 61 225 16.0 20.0 0.00 0.00 0.00 31 991.6
20260503220417 61 225 18.0 20.0 0.00 0.00 0.00 32 991.6
20260503215918 61 225 24.0 28.0 0.00 0.00 0.00 31 991.6
20260503215418 61 225 18.0 23.0 0.00 0.00 0.00 30 991.7
20260503214918 61 248 11.0 16.0 0.00 0.00 0.00 31 991.8
20260503214417 61 225 22.0 25.0 0.00 0.00 0.00 31 991.6
20260503213917 61 225 20.0 27.0 0.00 0.00 0.00 29 991.5
20260503213418 61 225 23.0 30.0 0.00 0.00 0.00 31 991.7
20260503212917 61 225 23.0 30.0 0.00 0.00 0.00 30 991.6
20260503212417 61 225 18.0 23.0 0.00 0.00 0.00 30 991.8
20260503211938 61 225 17.0 22.0 0.00 0.00 0.00 29 991.7
20260503211417 61 225 24.0 32.0 0.00 0.00 0.00 31 991.6
20260503210918 61 225 25.0 33.0 0.00 0.00 0.00 29 991.8
20260503210458 61 225 16.0 18.0 0.00 0.00 0.00 32 991.9
20260503205918 61 225 16.0 19.0 0.00 0.00 0.00 29 991.9
20260503205437 61 225 13.0 18.0 0.00 0.00 0.00 30 992.0
20260503204917 61 225 12.0 15.0 0.00 0.00 0.00 28 991.9
20260503204439 61 225 24.0 28.0 0.00 0.00 0.00 31 991.9
20260503203917 61 248 13.0 18.0 0.00 0.00 0.00 30 992.1
20260503203438 61 225 14.0 17.0 0.00 0.00 0.00 30 992.0
20260503202917 61 225 14.0 18.0 0.00 0.00 0.00 30 992.0
20260503202457 61 225 10.0 13.0 0.00 0.00 0.00 29 992.2
20260503201917 61 225 23.0 26.0 0.00 0.00 0.00 29 991.9
20260503201417 62 225 21.0 28.0 0.00 0.00 0.00 30 992.0
20260503200917 62 225 21.0 27.0 0.00 0.00 0.00 30 992.1
20260503200417 62 225 18.0 25.0 0.00 0.00 0.00 31 992.2
20260503195917 61 225 25.0 31.0 0.00 0.00 0.00 31 992.2
20260503195417 61 225 22.0 27.0 0.00 0.00 0.00 30 992.2
20260503194917 61 225 13.0 16.0 0.00 0.00 0.00 28 992.4
20260503194419 61 225 21.0 29.0 0.00 0.00 0.00 32 992.5
20260503193917 61 225 19.0 21.0 0.00 0.00 0.00 30 992.5
20260503193417 61 248 17.0 20.0 0.00 0.00 0.00 30 992.5
20260503192919 61 225 14.0 17.0 0.00 0.00 0.00 31 992.7
20260503192419 61 225 15.0 19.0 0.00 0.00 0.00 28 992.8
20260503191917 62 225 22.0 29.0 0.00 0.00 0.00 32 992.9
20260503191417 61 225 19.0 24.0 0.00 0.00 0.00 32 992.8
20260503190940 61 225 21.0 28.0 0.00 0.00 0.00 32 992.9